Weather History for Rolla, MO

Change the Weather History Date:

Sunday, January 6, 2013

  Actual Average Record
Temperature  
Mean Temperature 27 °F 31 °F  
Max Temperature 36 °F 40 °F 71 °F (2008)
Min Temperature 17 °F 21 °F -13 °F (2014)
Degree Days  
Heating Degree Days 38 34  
Month to date heating degree days 241 204  
Since 1 July heating degree days 1994 2121  
Cooling Degree Days 0 0  
Month to date cooling degree days 0 0  
Year to date cooling degree days 0 0  
Moisture  
Dew Point 21 °F    
Average Humidity 71    
Maximum Humidity 85    
Minimum Humidity 56    
Precipitation  
Precipitation 0.00 in 0.07 in 0.30 in (1962)
Month to date precipitation 0.00 0.46  
Year to date precipitation 0.00 0.46  
Sea Level Pressure  
Sea Level Pressure 30.28 in    
Wind  
Wind Speed 9 mph (WNW)    
Max Wind Speed 20 mph    
Max Gust Speed 25 mph    
Visibility 10 miles    
Events      
T = Trace of Precipitation, MM = Missing Value Source: NWS Daily Summary

Daily Weather History Graph

Daily Weather History Graph

Search for Another Location

Airport:

Trip Planner

Search our weather history database for the weather conditions in past years. The results will help you decide how hot, cold, wet, or windy it might be!

Date:

Astronomy

Jan. 06, 2013 Rise Set
Actual Time 7:23 AM CST 5:02 PM CST
Civil Twilight 6:54 AM CST 5:31 PM CST
Nautical Twilight 6:21 AM CST 6:04 PM CST
Astronomical Twilight 5:49 AM CST 6:36 PM CST
Moon 1:40 AM CST (1/6) 12:28 PM CST (1/6)
Length of Visible Light 10h 37m
Length of Day
9h 38m
Waning Crescent, 33% of the Moon is Illuminated
Jan 6
Waning Crescent
Jan 11
New
Jan 18
First Quarter
Jan 26
Full
Feb 3
Last Quarter

Hourly Weather History & Observations

Time (CST) Temp. Windchill Dew Point Humidity Pressure Visibility Wind Dir Wind Speed Gust Speed Precip Events Conditions
12:53 AM 35.1 °F 25.2 °F 28.9 °F 78% 30.13 in 10.0 mi WSW 16.1 mph - N/A   Clear
1:53 AM 33.1 °F 25.5 °F 28.0 °F 82% 30.14 in 10.0 mi West 9.2 mph - N/A   Clear
2:53 AM 30.9 °F 22.8 °F 27.0 °F 85% 30.15 in 10.0 mi West 9.2 mph - N/A   Clear
3:53 AM 30.0 °F 21.1 °F 27.0 °F 88% 30.15 in 10.0 mi West 10.4 mph - N/A   Clear
4:53 AM 30.0 °F 20.0 °F 26.1 °F 85% 30.15 in 10.0 mi West 12.7 mph - N/A   Clear
5:53 AM 28.9 °F 17.3 °F 24.1 °F 82% 30.18 in 10.0 mi NW 16.1 mph 23.0 mph N/A   Mostly Cloudy
6:53 AM 28.0 °F 17.5 °F 21.9 °F 78% 30.22 in 9.0 mi NW 12.7 mph 23.0 mph N/A   Overcast
7:53 AM 27.0 °F 15.2 °F 19.9 °F 75% 30.25 in 10.0 mi WNW 15.0 mph - N/A   Overcast
8:53 AM 27.0 °F 16.1 °F 19.9 °F 75% 30.27 in 10.0 mi NW 12.7 mph 20.7 mph N/A   Overcast
9:53 AM 28.0 °F 18.6 °F 21.0 °F 75% 30.30 in 10.0 mi NW 10.4 mph - N/A   Overcast
10:53 AM 30.9 °F 22.2 °F 21.9 °F 69% 30.31 in 10.0 mi WNW 10.4 mph - N/A   Mostly Cloudy
11:50 AM 30.2 °F 19.8 °F 21.2 °F 69% 30.28 in 9.0 mi NW 13.8 mph - N/A   Scattered Clouds
11:53 AM 30.9 °F 19.8 °F 21.9 °F 69% 30.31 in 9.0 mi NW 16.1 mph 21.9 mph N/A   Partly Cloudy
12:53 PM 30.9 °F 21.7 °F 21.9 °F 69% 30.31 in 9.0 mi NW 11.5 mph - N/A   Clear
1:53 PM 32.0 °F 24.2 °F 21.9 °F 66% 30.31 in 10.0 mi NW 9.2 mph - N/A   Clear
2:53 PM 33.1 °F 24.9 °F 21.0 °F 61% 30.32 in 10.0 mi NW 10.4 mph - N/A   Clear
3:53 PM 34.0 °F 27.2 °F 19.9 °F 56% 30.34 in 10.0 mi NNW 8.1 mph - N/A   Clear
4:53 PM 30.9 °F 25.2 °F 19.9 °F 64% 30.35 in 10.0 mi NW 5.8 mph - N/A   Clear
5:53 PM 26.1 °F 21.9 °F 18.0 °F 71% 30.36 in 10.0 mi SW 3.5 mph - N/A   Clear
6:53 PM 26.1 °F - 18.0 °F 71% 30.37 in 10.0 mi Calm Calm - N/A   Clear
7:53 PM 21.0 °F - 17.1 °F 85% 30.38 in 10.0 mi Calm Calm - N/A   Clear
9:53 PM 21.0 °F - 15.1 °F 78% 30.38 in 10.0 mi Calm Calm - N/A   Clear
10:53 PM 19.9 °F - 16.0 °F 85% 30.37 in 10.0 mi Calm Calm - N/A   Clear
11:53 PM 23.0 °F 17.0 °F 17.1 °F 78% 30.38 in 10.0 mi South 4.6 mph - N/A   Clear